| time (UTC) | temp F | wind direction | speed knots | gust knots | rain 1hr in | rain 24hr in | rain mn in | humidity % | barometer mb |
| 20260507234014 | 53 | 329 | 2.6 | 8.7 | 260.27 | 0.00 | 0.00 | ||
| 20260507232515 | 54 | 307 | 3.5 | 9.6 | 260.27 | 0.00 | 0.00 | ||
| 20260507231514 | 54 | 312 | 4.3 | 11.3 | 260.27 | 0.00 | 0.00 | ||
| 20260507231014 | 55 | 285 | 4.3 | 11.3 | 260.27 | 0.00 | 0.00 | ||
| 20260507230014 | 55 | 298 | 4.3 | 10.4 | 260.27 | 0.00 | 0.00 | ||
| 20260507225015 | 56 | 276 | 5.2 | 11.3 | 260.27 | 0.00 | 0.00 | ||
| 20260507224015 | 56 | 298 | 4.3 | 10.4 | 260.27 | 0.00 | 0.00 | ||
| 20260507222014 | 58 | 300 | 2.6 | 13.9 | 260.27 | 0.00 | 0.00 | ||
| 20260507221014 | 57 | 262 | 4.3 | 12.2 | 260.27 | 0.00 | 0.00 | ||
| 20260507220014 | 58 | 263 | 4.3 | 14.8 | 260.27 | 0.00 | 0.00 | ||
| 20260507215515 | 58 | 255 | 4.3 | 13.9 | 260.27 | 0.00 | 0.00 | ||
| 20260507214014 | 60 | 302 | 3.5 | 9.6 | 260.27 | 0.00 | 0.00 | ||
| 20260507211515 | 59 | 280 | 5.2 | 13.9 | 260.27 | 0.00 | 0.00 | ||
| 20260507211015 | 59 | 326 | 6.1 | 15.6 | 260.27 | 0.00 | 0.00 | ||
| 20260507210014 | 57 | 329 | 5.2 | 11.3 | 260.27 | 0.00 | 0.00 | ||
| 20260507204015 | 60 | 290 | 7.0 | 19.1 | 260.27 | 0.00 | 0.00 | ||
| 20260507203015 | 60 | 284 | 7.0 | 14.8 | 260.27 | 0.00 | 0.00 | ||
| 20260507202015 | 63 | 298 | 7.0 | 14.8 | 260.27 | 0.00 | 0.00 | ||
| 20260507200015 | 63 | 266 | 6.1 | 17.4 | 260.27 | 0.00 | 0.00 | ||
| 20260507195015 | 62 | 301 | 7.0 | 19.1 | 260.27 | 0.00 | 0.00 | ||
| 20260507194015 | 62 | 309 | 7.0 | 20.0 | 260.27 | 0.00 | 0.00 | ||
| 20260507193015 | 62 | 323 | 7.8 | 15.6 | 260.27 | 0.00 | 0.00 | ||
| 20260507190015 | 60 | 302 | 6.1 | 13.9 | 260.27 | 0.00 | 0.00 | ||
| 20260507183016 | 63 | 284 | 6.1 | 13.0 | 260.27 | 0.00 | 0.00 | ||
| 20260507181015 | 64 | 281 | 7.0 | 13.9 | 260.27 | 0.00 | 0.00 | ||
| 20260507180015 | 65 | 294 | 4.3 | 12.2 | 260.27 | 0.00 | 0.00 | ||
| 20260507174015 | 62 | 281 | 7.8 | 21.7 | 260.27 | 0.00 | 0.00 | ||
| 20260507173015 | 63 | 281 | 6.1 | 17.4 | 260.27 | 0.00 | 0.00 | ||
| 20260507172015 | 62 | 305 | 5.2 | 13.9 | 260.27 | 0.00 | 0.00 | ||
| 20260507171015 | 64 | 290 | 2.6 | 9.6 | 260.27 | 0.00 | 0.00 | ||
| 20260507164015 | 61 | 336 | 5.2 | 17.4 | 260.27 | 0.00 | 0.00 | ||
| 20260507161015 | 57 | 322 | 5.2 | 12.2 | 260.27 | 0.00 | 0.00 | ||
| 20260507151515 | 58 | 311 | 4.3 | 11.3 | 260.27 | 0.00 | 0.00 | ||
| 20260507150015 | 58 | 293 | 6.1 | 12.2 | 260.27 | 0.00 | 0.00 | ||
| 20260507144015 | 62 | 271 | 7.0 | 15.6 | 260.27 | 0.00 | 0.00 | ||
| 20260507143015 | 63 | 332 | 8.7 | 18.2 | 260.27 | 0.00 | 0.00 | ||
| 20260507135015 | 65 | 260 | 4.3 | 8.7 | 260.27 | 0.00 | 0.00 | ||
| 20260507134515 | 64 | 281 | 4.3 | 10.4 | 260.27 | 0.00 | 0.00 | ||
| 20260507133515 | 59 | 291 | 5.2 | 13.9 | 260.27 | 0.00 | 0.00 | ||
| 20260507132015 | 59 | 307 | 4.3 | 7.8 | 260.27 | 0.00 | 0.00 | ||
| 20260507125515 | 52 | 291 | 3.5 | 7.8 | 260.27 | 0.00 | 0.00 | ||
| 20260507124015 | 51 | 307 | 3.5 | 7.8 | 260.27 | 0.00 | 0.00 | ||
| 20260507122015 | 51 | 291 | 2.6 | 6.1 | 260.27 | 0.00 | 0.00 | ||
| 20260507120015 | 47 | 308 | 1.7 | 4.3 | 260.27 | 0.00 | 0.00 | ||
| 20260507114015 | 47 | 253 | 1.7 | 2.6 | 260.27 | 0.00 | 0.00 | ||
| 20260507113515 | 46 | 278 | 2.6 | 6.1 | 260.27 | 0.00 | 0.00 | ||
| 20260507113015 | 46 | 283 | 2.6 | 5.2 | 260.27 | 0.00 | 0.00 | ||
| 20260507112015 | 45 | 280 | 3.5 | 7.0 | 260.27 | 0.00 | 0.00 | ||
| 20260507110015 | 45 | 284 | 0.0 | 1.7 | 260.27 | 0.00 | 0.00 | ||
| 20260507105016 | 45 | 0 | 0.0 | 0.0 | 260.27 | 0.00 | 0.00 | ||
| 20260507104016 | 44 | 0 | 0.0 | 0.0 | 260.27 | 0.00 | 0.00 | ||
| 20260507100015 | 44 | 312 | 0.9 | 3.5 | 260.27 | 0.00 | 0.00 | ||
| 20260507094015 | 44 | 0 | 0.0 | 0.0 | 260.27 | 0.00 | 0.00 | ||
| 20260507093515 | 44 | 302 | 0.9 | 2.6 | 260.27 | 0.00 | 0.00 | ||
| 20260507093015 | 45 | 231 | 0.9 | 2.6 | 260.27 | 0.00 | 0.00 | ||
| 20260507092515 | 44 | 311 | 1.7 | 4.3 | 260.27 | 0.00 | 0.00 | ||
| 20260507092015 | 44 | 298 | 0.9 | 2.6 | 260.27 | 0.00 | 0.00 | ||
| 20260507091515 | 44 | 294 | 0.9 | 2.6 | 260.27 | 0.00 | 0.00 | ||
| 20260507090515 | 45 | 309 | 0.9 | 5.2 | 260.27 | 0.00 | 0.00 | ||
| 20260507090015 | 45 | 326 | 2.6 | 5.2 | 260.27 | 0.00 | 0.00 | ||
| 20260507085016 | 45 | 281 | 1.7 | 5.2 | 260.27 | 0.00 | 0.00 | ||
| 20260507084015 | 45 | 297 | 0.9 | 4.3 | 260.27 | 0.00 | 0.00 | ||
| 20260507083015 | 44 | 333 | 2.6 | 6.1 | 260.27 | 0.00 | 0.00 | ||
| 20260507082015 | 45 | 300 | 2.6 | 4.3 | 260.27 | 0.00 | 0.00 | ||
| 20260507081015 | 45 | 264 | 1.7 | 3.5 | 260.27 | 0.00 | 0.00 | ||
| 20260507075515 | 44 | 328 | 2.6 | 5.2 | 260.27 | 0.00 | 0.00 | ||
| 20260507075015 | 45 | 326 | 2.6 | 6.1 | 260.27 | 0.00 | 0.00 | ||
| 20260507074016 | 45 | 338 | 1.7 | 3.5 | 260.27 | 0.00 | 0.00 | ||
| 20260507073015 | 45 | 297 | 2.6 | 5.2 | 260.27 | 0.00 | 0.00 | ||
| 20260507072515 | 46 | 300 | 2.6 | 5.2 | 260.27 | 0.00 | 0.00 | ||
| 20260507072015 | 47 | 295 | 2.6 | 5.2 | 260.27 | 0.00 | 0.00 | ||
| 20260507071015 | 46 | 297 | 3.5 | 6.1 | 260.27 | 0.00 | 0.00 | ||
| 20260507070015 | 46 | 302 | 4.3 | 9.6 | 260.27 | 0.00 | 0.00 | ||
| 20260507065015 | 46 | 274 | 4.3 | 8.7 | 260.27 | 0.00 | 0.00 | ||
| 20260507064015 | 47 | 290 | 4.3 | 9.6 | 260.27 | 0.00 | 0.00 | ||
| 20260507063015 | 47 | 283 | 6.1 | 11.3 | 260.27 | 0.00 | 0.00 | ||
| 20260507061015 | 47 | 280 | 5.2 | 8.7 | 260.27 | 0.00 | 0.00 | ||
| 20260507060015 | 47 | 294 | 5.2 | 11.3 | 260.27 | 0.00 | 0.00 | ||
| 20260507055515 | 47 | 250 | 4.3 | 10.4 | 260.27 | 0.00 | 0.00 | ||
| 20260507055015 | 48 | 269 | 3.5 | 9.6 | 260.27 | 0.00 | 0.00 | ||
| 20260507054516 | 48 | 298 | 2.6 | 8.7 | 260.27 | 0.00 | 0.00 | ||
| 20260507054015 | 48 | 267 | 2.6 | 7.8 | 260.27 | 0.00 | 0.00 | ||
| 20260507052015 | 48 | 342 | 1.7 | 4.3 | 260.27 | 0.00 | 0.00 | ||
| 20260507051015 | 49 | 297 | 0.0 | 7.8 | 260.27 | 0.00 | 0.00 | ||
| 20260507050015 | 48 | 300 | 3.5 | 7.8 | 260.27 | 0.00 | 0.00 | ||
| 20260507045015 | 49 | 287 | 2.6 | 8.7 | 260.27 | 0.00 | 0.00 | ||
| 20260507044515 | 49 | 300 | 0.0 | 3.5 | 260.27 | 0.00 | 0.00 | ||
| 20260507044015 | 49 | 280 | 1.7 | 5.2 | 260.27 | 0.00 | 0.00 | ||
| 20260507043515 | 49 | 297 | 1.7 | 4.3 | 260.27 | 0.00 | 0.00 | ||
| 20260507042015 | 49 | 325 | 4.3 | 8.7 | 260.27 | 0.00 | 0.00 | ||
| 20260507041015 | 49 | 308 | 4.3 | 9.6 | 260.27 | 0.00 | 0.00 | ||
| 20260507040015 | 49 | 278 | 3.5 | 7.8 | 260.27 | 0.00 | 0.00 | ||
| 20260507035515 | 49 | 280 | 4.3 | 7.8 | 260.27 | 0.00 | 0.00 | ||
| 20260507034515 | 50 | 323 | 4.3 | 8.7 | 260.27 | 0.00 | 0.00 | ||
| 20260507034015 | 51 | 271 | 3.5 | 8.7 | 260.27 | 0.00 | 0.00 | ||
| 20260507033015 | 51 | 274 | 4.3 | 9.6 | 260.27 | 0.00 | 0.34 | ||
| 20260507032515 | 50 | 312 | 3.5 | 10.4 | 260.27 | 0.00 | 0.34 | ||
| 20260507032015 | 50 | 266 | 4.3 | 8.7 | 260.26 | 0.00 | 0.33 | ||
| 20260507031515 | 51 | 281 | 5.2 | 13.9 | 260.26 | 0.00 | 0.33 | ||
| 20260507031015 | 51 | 277 | 6.1 | 13.0 | 260.26 | 0.00 | 0.33 | ||
| 20260507030015 | 51 | 311 | 4.3 | 7.8 | 260.25 | 0.00 | 0.32 | ||
| 20260507025516 | 51 | 226 | 5.2 | 10.4 | 260.25 | 0.00 | 0.32 | ||
| 20260507024515 | 52 | 269 | 6.1 | 12.2 | 260.25 | 0.00 | 0.32 | ||
| 20260507024015 | 52 | 287 | 6.1 | 12.2 | 260.25 | 0.00 | 0.32 | ||
| 20260507021515 | 54 | 288 | 5.2 | 12.2 | 260.25 | 0.00 | 0.32 | ||
| 20260507021015 | 54 | 287 | 4.3 | 12.2 | 260.25 | 0.00 | 0.32 | ||
| 20260507020015 | 55 | 278 | 5.2 | 7.8 | 260.25 | 0.00 | 0.32 | ||
| 20260507015015 | 56 | 273 | 6.1 | 13.0 | 260.25 | 0.00 | 0.32 | ||
| 20260507014015 | 56 | 274 | 4.3 | 7.0 | 260.25 | 0.00 | 0.32 | ||
| 20260507013515 | 56 | 315 | 5.2 | 10.4 | 260.24 | 0.00 | 0.31 | ||
| 20260507013015 | 56 | 278 | 4.3 | 9.6 | 260.24 | 0.00 | 0.31 | ||
| 20260507012015 | 57 | 276 | 5.2 | 8.7 | 260.24 | 0.00 | 0.31 | ||
| 20260507010515 | 57 | 281 | 4.3 | 11.3 | 260.24 | 0.00 | 0.31 | ||
| 20260507010015 | 58 | 260 | 5.2 | 12.2 | 260.23 | 0.00 | 0.30 | ||
| 20260507005515 | 58 | 309 | 4.3 | 10.4 | 260.22 | 0.00 | 0.29 | ||
| 20260507005015 | 58 | 266 | 4.3 | 7.8 | 260.22 | 0.00 | 0.29 | ||
| 20260507004015 | 58 | 277 | 3.5 | 8.7 | 260.21 | 0.00 | 0.28 | ||
| 20260507003515 | 58 | 250 | 1.7 | 9.6 | 260.21 | 0.00 | 0.28 | ||
| 20260507003015 | 58 | 249 | 4.3 | 9.6 | 260.21 | 0.00 | 0.28 | ||
| 20260507001516 | 58 | 274 | 3.5 | 7.0 | 260.21 | 0.00 | 0.28 | ||
| 20260507001015 | 58 | 277 | 3.5 | 6.1 | 260.20 | 0.00 | 0.27 | ||
| 20260507000015 | 58 | 252 | 3.5 | 8.7 | 260.20 | 0.00 | 0.27 | ||
| 20260506235515 | 58 | 225 | 3.5 | 7.8 | 260.20 | 0.00 | 0.27 | ||
| 20260506235015 | 58 | 127 | 5.2 | 12.2 | 260.20 | 0.00 | 0.27 |